Tracking 25693 objects as of 30-Jun-2022
HD Live streaming from Space Station
objects crossing your sky now

DELTA 1 R/B

Track DELTA 1 R/B now!
10-day predictions


NORAD ID: 3036
Int'l Code: 1967-114B
Perigee: 1,417.0 km
Apogee: 1,492.0 km
Inclination: 102.1 °
Period: 114.8 minutes
Semi major axis: 7825 km
RCS: 0.589 m2 (medium)
Launch date: November 10, 1967
Source: United States (US)
Launch site: AIR FORCE WESTERN TEST RANGE (AFWTR)

Note: This is a ROCKET BODY
aabbcc
Your satellite tracking list
Your tracking list is empty




NASA's NSSDC Master Catalog

Two Line Element Set (TLE):
1 03036U 67114B   22181.14144646 -.00000033  00000-0  85279-4 0  9997
2 03036 102.1254 238.4848 0047974  18.1434  37.3481 12.54106446500822
Source of the keplerian elements: AFSPC